Home   Weather   Bocholt   Past weeks

Flag for Germany Past Weather in Bocholt, North Rhine-Westphalia, Germany — Yesterday and Last 2 Weeks

Now
28 °F

Clear.


Feels Like: 25 °F
Forecast: 22 / 32 °F
Wind: 3 mph from East

Location: Niederrhein

Current Time: Jan 21, 2017 at 11:09:57 pm

Latest Report: Jan 21, 2017 at 10:20 pm


Visibility: 10 mi

Pressure: 30.36 "Hg

Humidity: 86%

Dew Point: 25 °F

Location of BocholtLocation

Past Weather in Bocholt — Graph

°F

Bocholt Temperature Yesterday

Maximum temperature yesterday: 39 °F (at 3:20 pm)
Minimum temperature yesterday: 23 °F (at 5:20 am)
Average temperature yesterday: 31 °F

High & Low Weather Summary for the Past Weeks

 TemperatureHumidityPressure
High50 °F (Jan 11, 3:20 pm)100% (Jan 7, 6:20 am)30.72 "Hg (Jan 7, 6:20 am)
Low21 °F (Jan 19, 6:20 am)48% (Jan 20, 11:20 am)29.00 "Hg (Jan 12, 11:50 pm)
Average34 °F93%30.20 "Hg
* Reported Jan 6 9:20 pm — Jan 21 9:50 pm, Bocholt, Weather by CustomWeather, © 2017

Note: Actual official high and low records may vary slightly from our data, if they occured in-between our weather recording intervals... More about our weather records

Advertising

Bocholt Weather History for the Previous 24 Hours

Scroll right to see more
 ConditionsComfort  
Time TempWeatherWind HumidityBarometerVisibility
9:50 pm
Sat, Jan 21
28 °FClear.3 mph86%30.36 "Hg10 mi
9:20 pm28 °FClear.1 mph86%30.36 "Hg10 mi
8:50 pm28 °FClear.3 mph86%30.36 "Hg10 mi
8:20 pm30 °FClear.3 mph86%30.36 "Hg10 mi
7:50 pm32 °FClear.2 mph80%30.36 "Hg10 mi
7:20 pm34 °FClear.3 mph75%30.36 "Hg10 mi
6:50 pm34 °FClear.2 mph75%30.36 "Hg10 mi
6:20 pm32 °FClear.3 mph75%30.36 "Hg10 mi
5:20 pm37 °FSunny.2 mph70%30.36 "Hg10 mi
4:50 pm37 °FSunny.2 mph65%30.36 "Hg10 mi
4:20 pm41 °FSunny.3 mph53%30.36 "Hg10 mi
3:50 pm41 °FSunny.5 mph53%30.36 "Hg10 mi
3:20 pm41 °FPassing clouds.7 mph53%30.36 "HgN/A
2:50 pm41 °FPassing clouds.7 mph53%30.39 "HgN/A
2:20 pm41 °FPassing clouds.9 mph53%30.39 "HgN/A
1:50 pm39 °FSunny.9 mph56%30.39 "Hg10 mi
1:20 pm39 °FSunny.7 mph61%30.42 "Hg10 mi
12:50 pm37 °FPassing clouds.5 mph65%30.42 "HgN/A
12:20 pm37 °FPassing clouds.5 mph65%30.42 "HgN/A
11:50 am36 °FPassing clouds.5 mph70%30.42 "HgN/A
11:20 am36 °FSunny.3 mph70%30.45 "Hg10 mi
10:50 am34 °FPassing clouds.5 mph70%30.45 "HgN/A
10:20 am32 °FPassing clouds.5 mph75%30.45 "HgN/A
9:50 am30 °FSunny.3 mph80%30.45 "Hg10 mi
9:20 am28 °FClear.2 mph80%30.45 "Hg10 mi
8:50 am27 °FClear.2 mph86%30.45 "Hg10 mi
8:20 am27 °FClear.1 mph86%30.45 "Hg10 mi
7:50 am28 °FClear.2 mph80%30.45 "Hg10 mi
7:20 am28 °FClear.2 mph80%30.42 "Hg10 mi
6:50 am28 °FClear.2 mph80%30.45 "Hg10 mi
6:20 am28 °FClear.2 mph80%30.45 "Hg10 mi
5:50 am28 °FClear.2 mph80%30.45 "Hg10 mi
5:20 am30 °FClear.3 mph75%30.45 "Hg10 mi
4:50 am30 °FClear.3 mph75%30.45 "Hg10 mi
11:50 pm
Fri, Jan 20
30 °FClear.3 mph69%30.51 "Hg10 mi
11:20 pm30 °FPassing clouds.5 mph69%30.51 "HgN/A
Weather by CustomWeather, © 2017

See weather overviewHow to use our weather pages